Baltic Marshall — C4KD2 — position and weather

sailwx.info

Track history (hours):
 
Tides and Currents Weather Stations Pressure Air Temp Water Temp Dewpoint Dewpoint Depression Visibility Wind Speed Wind Dir Waves Ship Positions

Baltic Marshall

Last reported at 2016-Aug-17 23:28 UTC. Time now 2016-Aug-24 17:59 UTC.
Position N 27°35' W 015°20'.

Length 183 m; draft 10.2 m.

Type: Ship. MMSI: 212118000.

Date/timePositionNaut miles runAvg speedWind from/ knotsBaromVisibWave heightAir tempDewpointWater temp
2016-Aug-17 23:28N 27°35' W 015°20'1414.9
2016-Aug-17 22:30N 27°46' W 015°10'1414.8
2016-Aug-17 21:33N 27°59' W 015°04'1514.8
2016-Aug-17 20:33N 28°13' W 014°58'1514.9
2016-Aug-17 19:33N 28°28' W 014°53'1514.6
2016-Aug-17 18:33N 28°42' W 014°49'1514.5
2016-Aug-17 17:33N 28°56' W 014°45'1414.5
2016-Aug-17 16:33N 29°10' W 014°41'1414.3
2016-Aug-17 15:33N 29°24' W 014°36'1414.2
2016-Aug-17 14:33N 29°37' W 014°32'1414.1
2016-Aug-17 13:34N 29°51' W 014°27'1413.8
2016-Aug-17 12:32N 30°05' W 014°24'1313.5
2016-Aug-17 11:33N 30°18' W 014°20'1413.7
2016-Aug-17 10:33N 30°31' W 014°16'1413.8
2016-Aug-17 09:33N 30°44' W 014°12'1414.0
2016-Aug-17 08:32N 30°58' W 014°08'1914.1
2016-Aug-17 07:09N 31°17' W 014°02'1214.3
2016-Aug-17 06:18N 31°29' W 013°58'7214.2
2016-Aug-17 01:13N 32°39' W 013°37'1014.0
2016-Aug-17 00:29N 32°49' W 013°34'36414.4
2016-Aug-15 23:10N 38°41' W 011°39'1514.5
2016-Aug-15 22:07N 38°55' W 011°34'1114.1
2016-Aug-15 21:21N 39°06' W 011°31'2914.7
2016-Aug-15 19:23N 39°34' W 011°21'1815.0
2016-Aug-15 18:11N 39°51' W 011°15'1214.7
2016-Aug-15 17:23N 40°02' W 011°11'1214.7
2016-Aug-15 16:33N 40°14' W 011°06'1514.4
2016-Aug-15 15:32N 40°29' W 011°02'8714.6
2016-Aug-15 09:33N 41°53' W 010°33'7214.5
2016-Aug-15 04:33N 43°04' W 010°12'21813.5
2016-Aug-14 12:23N 46°18' W 007°54'7314.1
2016-Aug-14 07:10N 47°22' W 007°02'1014.4
2016-Aug-14 06:27N 47°32' W 006°55'6214.8
2016-Aug-14 02:14N 48°26' W 006°10'1014.5
2016-Aug-14 01:34N 48°35' W 006°03'1414.1
2016-Aug-14 00:33N 48°47' W 005°52'1413.6
2016-Aug-13 23:33N 48°57' W 005°38'1613.6
2016-Aug-13 22:22N 49°05' W 005°17'1213.9
2016-Aug-13 21:31N 49°12' W 005°01'1414.3
2016-Aug-13 20:33N 49°18' W 004°43'1514.6
2016-Aug-13 19:34N 49°25' W 004°23'1814.7
2016-Aug-13 18:18N 49°35' W 003°59'1114.3
2016-Aug-13 17:33N 49°40' W 003°45'1414.0
2016-Aug-13 16:33N 49°47' W 003°26'1413.6
2016-Aug-13 15:33N 49°53' W 003°07'1313.3
2016-Aug-13 14:33N 49°59' W 002°49'1413.4
2016-Aug-13 13:31N 50°02' W 002°28'1413.6
2016-Aug-13 12:31N 50°07' W 002°08'1414.4
2016-Aug-13 11:34N 50°10' W 001°47'1515.1
2016-Aug-13 10:33N 50°14' W 001°24'1615.7
2016-Aug-13 09:32N 50°18' W 000°59'1515.3
2016-Aug-13 08:33N 50°22' W 000°37'1514.9
2016-Aug-13 07:34N 50°26' W 000°14'1414.2
2016-Aug-13 06:33N 50°30' E 000°07'1413.8
2016-Aug-13 05:33N 50°34' E 000°28'3313.7
2016-Aug-13 03:08N 50°54' E 001°09'914.7
2016-Aug-13 02:33N 51°00' E 001°19'1514.8
2016-Aug-13 01:33N 51°09' E 001°37'1414.1
2016-Aug-13 00:33N 51°20' E 001°51'1110.9
2016-Aug-12 23:33N 51°23' E 002°08'1212.2
2016-Aug-12 22:33N 51°23' E 002°28'1211.9
2016-Aug-12 21:33N 51°22' E 002°47'1211.7
2016-Aug-12 20:33N 51°24' E 003°05'1212.0
2016-Aug-12 19:33N 51°25' E 003°25'10 9.7
2016-Aug-12 18:33N 51°27' E 003°40'10 9.6
2016-Aug-12 17:33N 51°21' E 003°53'6 6.4
2016-Aug-12 16:33N 51°23' E 004°03'9 8.9
2016-Aug-12 15:33N 51°21' E 004°16'1 0.6
2016-Aug-12 14:31N 51°21' E 004°17'5 4.8
2016-Aug-12 13:33N 51°17' E 004°21'1 0.6
2016-Aug-12 12:32N 51°16' E 004°21'0 0.0
2016-Aug-10 08:33N 51°16' E 004°21'4 3.6
2016-Aug-10 07:33N 51°19' E 004°19'2 1.7
2016-Aug-10 06:34N 51°21' E 004°17'1 0.8
2016-Aug-10 05:33N 51°21' E 004°16'7 7.3
2016-Aug-10 04:34N 51°22' E 004°04'1010.1
2016-Aug-10 03:34N 51°21' E 003°48'1211.8
2016-Aug-10 02:34N 51°27' E 003°32'1514.8
2016-Aug-10 01:33N 51°39' E 003°19'9 8.6
2016-Aug-10 00:33N 51°48' E 003°17'2 0.9
2016-Aug-09 22:20N 51°48' E 003°20'0 0.1
2016-Aug-09 21:26N 51°48' E 003°21'0 0.0
2016-Aug-09 06:32N 51°48' E 003°21'0 0.0
2016-Aug-09 03:26N 51°48' E 003°21'0 0.0
2016-Aug-09 00:11N 51°48' E 003°20'0 0.1
2016-Aug-08 20:14N 51°48' E 003°21'0 0.1
2016-Aug-08 19:32N 51°48' E 003°21'0 0.0
2016-Aug-08 18:32N 51°48' E 003°21'0 0.0
2016-Aug-08 17:05N 51°48' E 003°21'0 0.0
2016-Aug-08 10:32N 51°48' E 003°21'0 0.0
2016-Aug-08 08:29N 51°48' E 003°21'0 0.0
2016-Aug-08 07:32N 51°48' E 003°21'0 0.0
2016-Aug-08 06:32N 51°48' E 003°21'0 0.0
2016-Aug-08 05:29N 51°48' E 003°21'0 0.0
2016-Aug-08 04:08N 51°48' E 003°21'0 0.1
2016-Aug-08 03:29N 51°48' E 003°21'0 0.0
2016-Aug-08 02:11N 51°48' E 003°21'0 0.0
2016-Aug-08 00:20N 51°48' E 003°21'  
Track history (hours):
 
Tides and Currents Weather Stations Pressure Air Temp Water Temp Dewpoint Dewpoint Depression Visibility Wind Speed Wind Dir Waves Ship Positions

Baltic Marshall

Last reported at 2016-Aug-17 23:28 UTC. Time now 2016-Aug-24 17:59 UTC.
Position N 27°35' W 015°20'.

Length 183 m; draft 10.2 m.

Type: Ship. MMSI: 212118000.

Date/timePositionNaut miles runAvg speedWind from/ knotsBaromVisibWave heightAir tempDewpointWater temp
2016-Aug-17 23:28N 27°35' W 015°20'1414.9
2016-Aug-17 22:30N 27°46' W 015°10'1414.8
2016-Aug-17 21:33N 27°59' W 015°04'1514.8
2016-Aug-17 20:33N 28°13' W 014°58'1514.9
2016-Aug-17 19:33N 28°28' W 014°53'1514.6
2016-Aug-17 18:33N 28°42' W 014°49'1514.5
2016-Aug-17 17:33N 28°56' W 014°45'1414.5
2016-Aug-17 16:33N 29°10' W 014°41'1414.3
2016-Aug-17 15:33N 29°24' W 014°36'1414.2
2016-Aug-17 14:33N 29°37' W 014°32'1414.1
2016-Aug-17 13:34N 29°51' W 014°27'1413.8
2016-Aug-17 12:32N 30°05' W 014°24'1313.5
2016-Aug-17 11:33N 30°18' W 014°20'1413.7
2016-Aug-17 10:33N 30°31' W 014°16'1413.8
2016-Aug-17 09:33N 30°44' W 014°12'1414.0
2016-Aug-17 08:32N 30°58' W 014°08'1914.1
2016-Aug-17 07:09N 31°17' W 014°02'1214.3
2016-Aug-17 06:18N 31°29' W 013°58'7214.2
2016-Aug-17 01:13N 32°39' W 013°37'1014.0
2016-Aug-17 00:29N 32°49' W 013°34'36414.4
2016-Aug-15 23:10N 38°41' W 011°39'1514.5
2016-Aug-15 22:07N 38°55' W 011°34'1114.1
2016-Aug-15 21:21N 39°06' W 011°31'2914.7
2016-Aug-15 19:23N 39°34' W 011°21'1815.0
2016-Aug-15 18:11N 39°51' W 011°15'1214.7
2016-Aug-15 17:23N 40°02' W 011°11'1214.7
2016-Aug-15 16:33N 40°14' W 011°06'1514.4
2016-Aug-15 15:32N 40°29' W 011°02'8714.6
2016-Aug-15 09:33N 41°53' W 010°33'7214.5
2016-Aug-15 04:33N 43°04' W 010°12'21813.5
2016-Aug-14 12:23N 46°18' W 007°54'7314.1
2016-Aug-14 07:10N 47°22' W 007°02'1014.4
2016-Aug-14 06:27N 47°32' W 006°55'6214.8
2016-Aug-14 02:14N 48°26' W 006°10'1014.5
2016-Aug-14 01:34N 48°35' W 006°03'1414.1
2016-Aug-14 00:33N 48°47' W 005°52'1413.6
2016-Aug-13 23:33N 48°57' W 005°38'1613.6
2016-Aug-13 22:22N 49°05' W 005°17'1213.9
2016-Aug-13 21:31N 49°12' W 005°01'1414.3
2016-Aug-13 20:33N 49°18' W 004°43'1514.6
2016-Aug-13 19:34N 49°25' W 004°23'1814.7
2016-Aug-13 18:18N 49°35' W 003°59'1114.3
2016-Aug-13 17:33N 49°40' W 003°45'1414.0
2016-Aug-13 16:33N 49°47' W 003°26'1413.6
2016-Aug-13 15:33N 49°53' W 003°07'1313.3
2016-Aug-13 14:33N 49°59' W 002°49'1413.4
2016-Aug-13 13:31N 50°02' W 002°28'1413.6
2016-Aug-13 12:31N 50°07' W 002°08'1414.4
2016-Aug-13 11:34N 50°10' W 001°47'1515.1
2016-Aug-13 10:33N 50°14' W 001°24'1615.7
2016-Aug-13 09:32N 50°18' W 000°59'1515.3
2016-Aug-13 08:33N 50°22' W 000°37'1514.9
2016-Aug-13 07:34N 50°26' W 000°14'1414.2
2016-Aug-13 06:33N 50°30' E 000°07'1413.8
2016-Aug-13 05:33N 50°34' E 000°28'3313.7
2016-Aug-13 03:08N 50°54' E 001°09'914.7
2016-Aug-13 02:33N 51°00' E 001°19'1514.8
2016-Aug-13 01:33N 51°09' E 001°37'1414.1
2016-Aug-13 00:33N 51°20' E 001°51'1110.9
2016-Aug-12 23:33N 51°23' E 002°08'1212.2
2016-Aug-12 22:33N 51°23' E 002°28'1211.9
2016-Aug-12 21:33N 51°22' E 002°47'1211.7
2016-Aug-12 20:33N 51°24' E 003°05'1212.0
2016-Aug-12 19:33N 51°25' E 003°25'10 9.7
2016-Aug-12 18:33N 51°27' E 003°40'10 9.6
2016-Aug-12 17:33N 51°21' E 003°53'6 6.4
2016-Aug-12 16:33N 51°23' E 004°03'9 8.9
2016-Aug-12 15:33N 51°21' E 004°16'1 0.6
2016-Aug-12 14:31N 51°21' E 004°17'5 4.8
2016-Aug-12 13:33N 51°17' E 004°21'1 0.6
2016-Aug-12 12:32N 51°16' E 004°21'0 0.0
2016-Aug-10 08:33N 51°16' E 004°21'4 3.6
2016-Aug-10 07:33N 51°19' E 004°19'2 1.7
2016-Aug-10 06:34N 51°21' E 004°17'1 0.8
2016-Aug-10 05:33N 51°21' E 004°16'7 7.3
2016-Aug-10 04:34N 51°22' E 004°04'1010.1
2016-Aug-10 03:34N 51°21' E 003°48'1211.8
2016-Aug-10 02:34N 51°27' E 003°32'1514.8
2016-Aug-10 01:33N 51°39' E 003°19'9 8.6
2016-Aug-10 00:33N 51°48' E 003°17'2 0.9
2016-Aug-09 22:20N 51°48' E 003°20'0 0.1
2016-Aug-09 21:26N 51°48' E 003°21'0 0.0
2016-Aug-09 06:32N 51°48' E 003°21'0 0.0
2016-Aug-09 03:26N 51°48' E 003°21'0 0.0
2016-Aug-09 00:11N 51°48' E 003°20'0 0.1
2016-Aug-08 20:14N 51°48' E 003°21'0 0.1
2016-Aug-08 19:32N 51°48' E 003°21'0 0.0
2016-Aug-08 18:32N 51°48' E 003°21'0 0.0
2016-Aug-08 17:05N 51°48' E 003°21'0 0.0
2016-Aug-08 10:32N 51°48' E 003°21'0 0.0
2016-Aug-08 08:29N 51°48' E 003°21'0 0.0
2016-Aug-08 07:32N 51°48' E 003°21'0 0.0
2016-Aug-08 06:32N 51°48' E 003°21'0 0.0
2016-Aug-08 05:29N 51°48' E 003°21'0 0.0
2016-Aug-08 04:08N 51°48' E 003°21'0 0.1
2016-Aug-08 03:29N 51°48' E 003°21'0 0.0
2016-Aug-08 02:11N 51°48' E 003°21'0 0.0
2016-Aug-08 00:20N 51°48' E 003°21'  

Dump ship's entire track history